Probability
0 1 2 3 2 1 1 1 1 1 0 1 2 2 2 2 2 1 0 0 0 0 0 0 0 0 0 0 0 0 0 0 0 0 0 0 0 0 0 1 0 0 1
0 1 2 3 3 2 2 2 2 2 1 0 1 1 1 1 1 0 0 0 0 0 0 0 0 0 0 0 0 0 0 0 0 0 0 0 0 0 0 1 1 1 2
0 1 2 3 3 3 3 3 3 2 1 0 0 0 0 0 0 0 0 0 0 0 0 0 0 0 0 0 0 0 0 0 0 0 0 0 0 0 1 2 3 3 2
0 1 2 3 3 3 3 3 3 2 1 0 0 0 0 0 0 0 0 0 0 0 0 0 0 0 0 0 0 0 0 0 0 0 0 0 0 0 1 2 3 2 1
0 0 1 3 3 3 3 3 3 3 1 1 0 0 0 0 0 0 0 0 0 0 0 0 0 0 0 0 0 0 0 0 0 0 0 0 0 0 1 1 1 1 0
0 0 1 2 2 1 1 2 3 3 3 2 1 0 0 0 0 0 0 0 0 0 0 0 0 0 0 0 0 0 0 0 0 0 0 0 0 0 0 0 0 0 0
0 0 0 1 1 0 0 1 1 3 3 3 2 1 0 0 0 0 0 0 0 0 0 0 0 0 0 0 0 1 0 0 0 0 0 0 0 0 0 0 0 0 0
0 0 0 0 0 0 0 0 1 2 3 3 2 1 0 0 0 0 0 0 0 0 0 0 0 0 0 0 0 0 0 0 0 0 0 0 0 0 0 0 0 0 0
0 0 0 0 0 0 0 0 0 1 1 2 1 0 0 0 0 0 0 0 0 0 0 0 0 0 0 0 0 0 0 0 0 0 0 0 0 0 0 0 0 0 0
0 0 0 0 0 0 1 0 0 0 0 1 1 0 0 0 0 0 0 0 0 0 0 0 0 0 0 0 0 0 0 0 0 0 0 0 0 0 0 0 0 0 0
0 0 0 0 0 0 0 0 0 0 0 0 1 1 1 0 0 0 0 0 0 0 0 0 0 0 0 0 0 0 0 0 0 0 0 0 0 0 0 0 0 0 0
0 0 0 0 0 0 0 0 0 0 0 0 0 0 0 0 0 0 0 0 0 0 0 0 0 0 0 0 0 0 0 0 0 0 0 0 0 0 0 0 0 0 0
0 0 0 0 0 0 0 0 0 0 0 0 0 0 0 0 0 0 0 0 0 0 0 0 0 0 0 0 0 0 0 0 0 0 0 0 0 0 0 0 0 0 0
0 0 0 1 1 0 0 0 0 0 0 0 0 0 1 0 0 0 0 0 0 0 0 0 0 0 0 0 0 0 0 0 0 0 0 0 0 0 0 0 0 0 0
0 0 0 0 1 1 1 1 0 0 0 0 0 0 0 0 0 0 0 0 0 0 0 0 0 0 0 0 0 0 0 0 0 0 0 0 0 0 0 0 0 0 0
1 2 1 0 1 2 2 1 0 0 0 0 0 0 0 0 0 0 0 0 0 0 0 0 0 0 0 0 0 0 0 0 0 0 0 0 0 0 0 0 0 0 0
3 3 2 1 0 1 1 1 0 0 0 0 0 0 0 0 0 0 0 0 0 0 0 0 0 0 0 0 0 0 0 0 0 0 0 0 0 0 0 0 0 0 0
3 3 3 1 0 0 0 0 0 0 0 0 0 0 0 0 0 0 0 0 0 0 0 0 0 0 0 0 0 0 0 0 0 0 0 0 0 0 0 0 0 0 0
3 3 3 2 1 0 0 0 0 0 0 0 0 0 0 0 0 0 0 0 0 0 0 0 0 0 0 0 0 0 0 0 0 0 0 0 0 0 0 0 0 0 0
2 3 3 3 2 1 0 0 0 0 0 0 0 0 0 0 0 0 0 0 0 0 0 0 0 0 0 0 0 0 0 0 0 0 0 0 0 0 0 0 0 0 0
3 3 3 3 3 1 0 0 0 0 0 0 0 0 0 0 0 0 0 0 0 0 0 0 0 0 0 0 0 0 0 0 0 0 0 0 0 0 0 0 0 0 0
3 3 4 3 3 2 1 0 0 0 0 0 0 0 0 0 0 0 0 0 0 0 0 0 0 0 0 0 0 0 0 0 0 0 0 0 0 0 0 0 0 0 0
2 3 4 4 3 3 2 1 0 0 0 0 0 0 0 0 0 0 0 0 0 0 0 0 0 0 0 0 0 0 0 0 0 0 0 0 0 0 0 0 0 0 0
2 3 4 5 4 3 2 1 0 0 0 0 0 0 0 0 0 0 0 0 0 0 0 0 0 0 0 0 0 0 0 0 0 0 0 0 0 0 0 0 0 0 0
2 3 4 4 4 3 2 1 0 0 0 0 0 0 0 0 0 0 0 0 0 0 0 0 0 0 0 0 0 0 0 0 0 0 0 0 0 0 0 0 0 0 0
2 3 4 4 4 3 2 1 0 0 0 0 0 0 0 0 0 0 0 0 0 0 0 0 0 0 0 0 0 0 0 0 0 0 0 0 0 0 0 0 0 0 0
Wind_Speed
1 2 7 8 8 8 8 9 9 9 8 9 9 9 9 9 10 9 9 9 9 9 9 9 9 9 9 9 9 9 9 9 9 9 9 8 8 8 8 8 7 4 8
5 4 7 8 8 8 8 8 9 9 9 9 9 9 9 9 9 9 9 9 8 8 8 8 8 8 8 8 9 9 9 9 9 9 9 8 8 9 8 8 8 5 7
6 5 6 8 8 8 8 8 9 9 9 8 8 8 8 8 8 8 8 8 8 8 8 8 8 8 8 8 8 8 9 9 10 9 8 4 5 8 8 8 8 8 7
7 5 6 8 8 8 8 8 8 8 8 8 8 8 8 7 7 7 7 8 8 8 8 8 8 7 7 7 8 8 9 9 10 8 4 4 3 8 9 8 8 8 8
7 5 6 9 9 8 8 8 7 7 8 8 8 8 7 7 7 7 7 8 8 8 8 8 7 7 7 7 8 9 10 10 10 8 4 3 3 7 9 8 8 8 8
6 5 6 9 9 8 8 8 7 7 7 7 7 7 7 7 7 7 7 7 8 8 7 7 7 8 8 9 9 9 10 10 8 5 4 3 3 8 9 9 8 8 8
6 4 5 9 9 9 8 7 7 7 7 6 7 6 6 7 7 7 6 7 7 7 8 7 8 8 9 10 10 10 10 10 6 4 4 3 4 9 9 8 8 8 8
6 5 4 8 9 8 8 7 7 7 6 6 6 6 6 6 6 6 7 7 7 7 7 8 8 9 10 10 10 10 10 9 7 5 4 3 7 8 9 8 8 8 8
5 5 3 3 5 7 8 7 7 6 5 5 5 5 5 5 5 6 6 7 7 7 7 8 8 9 9 10 10 10 11 10 5 3 4 3 7 8 8 8 8 8 8
4 4 4 3 3 2 3 6 6 6 5 4 4 5 5 5 5 5 5 6 7 7 7 8 8 9 9 10 10 10 11 8 5 4 2 3 8 8 8 8 8 8 8
4 3 4 3 3 2 2 4 4 4 4 3 3 4 3 2 2 2 4 5 6 7 7 7 8 9 9 9 9 10 8 3 4 3 2 6 8 8 9 9 8 9 9
3 3 4 4 4 3 3 2 1 1 1 1 1 2 2 2 1 2 3 5 5 5 6 7 7 7 6 4 6 8 3 4 3 2 3 8 8 9 9 9 9 9 9
4 4 4 4 4 4 2 2 1 0 1 1 2 2 2 2 1 2 1 2 3 4 3 5 5 3 4 3 3 4 4 4 3 2 4 8 9 9 9 9 9 9 10
3 3 4 4 3 3 3 2 2 1 1 1 1 2 2 1 2 2 1 2 2 2 3 3 3 3 4 4 5 5 5 3 3 2 4 9 9 9 10 9 9 10 11
4 3 3 4 4 3 2 2 2 2 2 2 2 2 3 2 2 2 2 2 2 2 3 3 3 4 4 4 4 5 5 5 4 4 3 8 9 10 9 9 10 11 11
4 4 3 4 4 4 2 2 2 2 2 2 2 2 3 3 3 3 3 2 2 2 3 3 4 4 4 4 5 5 4 4 4 4 4 6 10 10 10 10 10 11 12
4 3 3 4 4 4 3 2 2 2 2 1 1 2 3 3 3 4 3 3 2 3 4 4 4 4 5 5 5 5 4 4 4 4 4 4 4 9 11 11 11 11 12
4 4 4 4 3 3 2 2 1 2 2 1 1 2 3 4 4 4 3 3 3 3 3 4 4 4 4 4 4 3 3 3 3 4 4 4 3 4 7 12 12 12 12
4 4 4 4 3 3 2 2 2 2 2 1 2 2 2 4 4 4 4 3 4 4 3 4 3 4 4 4 4 3 3 3 3 4 4 4 4 4 4 8 11 11 11
4 5 4 3 3 3 2 2 2 2 2 1 1 2 3 3 4 4 4 4 4 4 4 4 4 3 3 3 5 5 3 3 3 3 3 3 3 4 4 5 5 6 10
4 4 4 4 2 3 2 2 1 1 1 1 1 2 3 4 4 4 4 4 4 4 4 5 4 4 3 3 4 4 4 4 4 3 2 3 3 3 4 4 4 3 4
4 4 4 3 3 2 2 1 1 1 1 1 1 2 2 4 4 5 5 4 4 4 5 5 4 3 2 2 3 3 2 4 4 3 2 2 3 2 3 4 4 4 3
4 4 4 3 3 2 2 2 2 2 2 2 1 1 1 2 3 4 5 4 5 5 5 5 5 4 3 1 1 4 3 2 0 3 3 3 2 3 2 3 4 3 3
4 3 3 3 3 2 3 3 3 2 2 1 1 1 1 1 3 3 4 5 5 4 5 5 4 3 4 2 0 1 2 4 3 1 2 2 3 3 2 3 3 3 3
3 4 3 3 3 2 3 3 3 2 1 1 1 1 1 1 1 3 4 4 4 4 4 4 4 3 3 3 2 2 2 2 2 3 2 1 2 2 2 2 2 2 2
2 3 3 3 2 2 2 3 3 3 2 2 1 1 1 1 1 2 3 4 4 4 4 4 4 4 3 3 2 2 3 3 3 3 3 2 1 1 2 2 2 1 1
Wind_Direction
166 170 124 112 104 99 94 90 90 92 91 88 85 84 85 86 87 87 87 87 87 85 86 84 81 80 80 79 79 80 79 82 87 88 87 84 83 85 88 93 91 85 88
161 153 129 119 110 104 100 93 92 92 92 92 89 89 88 89 90 89 87 87 88 86 85 84 83 81 79 78 75 74 73 77 87 87 82 78 79 79 83 89 90 88 88
144 144 134 124 118 112 107 99 97 96 93 93 91 92 92 92 92 92 90 88 87 86 87 86 84 81 79 75 73 73 73 75 80 84 79 65 72 78 81 85 88 86 84
142 144 137 130 125 119 113 107 103 102 99 95 93 93 94 93 92 94 93 91 89 88 89 87 82 80 78 75 73 74 75 77 79 79 71 58 63 80 82 84 84 83 83
139 145 145 137 131 125 118 114 111 109 104 99 97 96 97 98 96 95 95 93 92 91 90 89 83 82 78 76 75 77 74 75 77 73 69 59 55 82 83 82 81 80 82
146 154 151 142 136 132 127 121 117 115 111 105 100 99 99 101 100 98 99 97 94 93 93 90 85 83 82 81 76 75 74 79 72 65 59 63 67 83 83 81 81 79 79
155 160 155 149 144 140 135 130 127 122 117 111 105 102 103 103 102 102 103 100 98 98 96 94 90 87 83 80 78 78 77 81 71 67 62 69 82 86 85 81 80 81 80
152 152 154 155 151 149 145 142 138 130 127 119 114 109 110 110 110 107 105 105 102 100 99 96 91 89 84 80 81 82 80 77 72 72 66 66 89 89 86 82 80 79 77
141 138 145 153 153 156 155 151 146 140 137 131 126 124 122 117 117 116 110 110 109 106 104 102 96 90 85 84 83 81 78 73 61 57 71 67 87 89 86 82 78 75 72
137 140 149 145 143 150 154 159 156 152 145 139 134 131 125 120 121 121 116 115 115 111 108 106 99 92 89 87 83 79 76 68 53 49 46 77 85 88 88 85 82 79 74
141 151 152 158 162 162 172 170 161 156 149 131 114 119 109 94 95 116 125 122 120 118 111 105 100 95 88 84 82 79 73 58 52 41 43 82 85 85 88 86 84 81 78
157 166 166 168 169 169 175 159 167 159 145 130 118 113 100 98 104 117 116 115 116 112 104 101 92 85 74 66 75 74 66 60 49 40 60 83 86 87 88 86 84 81 79
166 158 164 165 162 160 168 156 154 157 142 137 136 130 115 98 90 90 83 81 78 78 74 78 72 66 69 71 73 73 72 63 45 37 59 80 85 88 88 85 82 81 81
147 155 158 151 150 155 150 151 157 154 140 137 147 136 119 108 107 107 101 90 80 81 87 79 81 74 76 78 81 80 74 68 51 37 56 77 83 85 86 85 82 83 82
128 133 147 144 147 150 141 153 143 155 155 158 148 145 139 131 130 124 110 96 95 96 94 87 84 82 82 81 85 89 83 75 63 52 46 68 77 81 84 83 83 83 79
133 137 136 131 141 143 144 144 146 153 153 144 155 160 146 139 135 129 116 105 104 108 102 99 97 93 87 86 82 82 83 80 71 65 52 56 68 72 73 77 78 79 78
148 137 137 139 125 133 139 149 145 148 136 145 160 148 139 135 130 126 121 118 119 112 105 95 89 86 90 87 80 79 79 77 79 73 64 52 53 65 71 73 74 77 78
137 136 137 129 117 114 117 131 131 142 137 142 134 131 134 135 134 125 127 127 124 112 108 106 98 89 84 84 80 72 69 71 75 75 69 61 52 55 63 70 70 72 74
135 130 117 110 116 111 105 107 107 114 116 120 121 120 125 132 134 129 133 131 124 114 111 116 101 104 102 94 89 74 61 60 69 83 76 68 64 62 59 66 65 65 70
122 120 115 109 108 106 94 81 75 73 73 85 112 120 126 131 130 128 128 126 121 114 107 110 111 98 102 104 94 74 53 48 55 71 83 75 69 72 66 60 54 55 63
112 114 119 117 113 110 97 92 95 94 84 81 104 124 130 130 128 131 133 127 127 127 133 129 116 103 92 101 87 61 36 38 46 53 63 69 69 73 68 59 54 45 46
136 134 123 122 132 134 137 142 141 132 112 104 92 105 131 132 137 142 140 140 138 130 128 129 124 114 122 122 114 99 56 19 16 30 44 73 71 66 70 69 60 55 45
137 145 140 136 132 125 118 105 86 66 53 50 50 88 143 144 147 146 147 147 150 146 149 151 146 141 156 200 146 136 138 171 1 9 25 51 65 69 65 62 66 57 54
162 153 143 146 133 124 120 122 125 128 153 195 194 169 127 150 152 148 152 152 157 154 157 168 161 154 150 169 176 96 139 148 142 111 9 19 53 70 72 80 71 60 51
155 146 147 146 139 132 128 136 135 126 157 159 135 128 123 154 162 156 158 159 164 165 169 167 158 161 158 162 163 138 103 93 114 131 138 18 32 30 60 82 81 67 53
119 132 137 140 154 150 139 139 143 147 146 138 153 174 191 190 182 177 160 166 170 171 178 174 172 170 171 163 158 152 152 149 155 138 144 146 108 21 38 51 75 75 60